Beauty, KY

4:12 PM EDT on September 29, 2016 (GMT -0400)
Prestonsburg

Weather History for KK22 - October, 2012

Change the Weather History Date:

Thursday, October 4, 2012

  Actual Average (KJKL) Record (KJKL)
Temperature  
Mean Temperature 66 °F 62 °F  
Max Temperature 75 °F 72 °F 86 °F (2005)
Min Temperature 59 °F 51 °F 31 °F (1987)
Degree Days  
Heating Degree Days 0 5  
Month to date heating degree days 20  
Since 1 July heating degree days 72  
Cooling Degree Days 2 2  
Month to date cooling degree days 8  
Year to date cooling degree days 1129  
Growing Degree Days 16 (Base 50)    
Moisture  
Dew Point 56 °F    
Average Humidity 74    
Maximum Humidity 96    
Minimum Humidity 48    
Precipitation  
Precipitation 0.00 in 0.10 in 1.20 in (1990)
Month to date precipitation 0.40  
Year to date precipitation 37.41  
Snow  
Snow - 0.00 in - ()
Month to date snowfall 0.0  
Since 1 July snowfall 0.0  
Since 1 September snowfall 0.0  
Snow Depth -    
Sea Level Pressure  
Sea Level Pressure 30.28 in    
Wind  
Wind Speed 3 mph ()    
Max Wind Speed 9 mph    
Max Gust Speed -    
Visibility 10.0 miles    
Events      
T = Trace of Precipitation, MM = Missing Value Source: Averaged Metar Reports

Daily Weather History Graph

Daily Weather History Graph

Search for Another Location

Airport or City:

Trip Planner

Search our weather history database for the weather conditions in past years. The results will help you decide how hot, cold, wet, or windy it might be!

Date:

Astronomy

Oct. 04, 2012 Rise Set
Actual Time 7:29 AM EDT 7:08 PM EDT
Civil Twilight 7:03 AM EDT 7:34 PM EDT
Nautical Twilight 6:32 AM EDT 8:04 PM EDT
Astronomical Twilight 6:02 AM EDT 8:35 PM EDT
Moon 9:48 PM EDT (10/4) 11:40 AM EDT (10/4)
Length of Visible Light 12h 31m
Length of Day
11h 39m
Waning Gibbous, 82% of the Moon is Illuminated
Oct 4
Waning Gibbous
Oct 8
Last Quarter
Oct 15
New
Oct 21
First Quarter
Oct 29
Full

Hourly Weather History & Observations

Time (EDT) Temp. Dew Point Humidity Pressure Visibility Wind Dir Wind Speed Gust Speed Precip Events Conditions
12:15 AM 61.7 °F 59.5 °F 93% 30.24 in 10.0 mi Calm Calm - N/A   Mostly Cloudy
12:35 AM 61.2 °F 59.9 °F 96% 30.24 in 10.0 mi Calm Calm - N/A   Overcast
12:55 AM 61.3 °F 59.5 °F 94% 30.24 in 10.0 mi Calm Calm - N/A   Overcast
1:15 AM 61.0 °F 59.7 °F 96% 30.24 in 10.0 mi SW 3.5 mph - N/A   Mostly Cloudy
1:35 AM 60.8 °F 59.5 °F 96% 30.25 in 10.0 mi Calm Calm - N/A   Mostly Cloudy
1:55 AM 61.7 °F 59.0 °F 91% 30.25 in 10.0 mi Calm Calm - N/A   Mostly Cloudy
2:15 AM 61.2 °F 59.4 °F 94% 30.25 in 10.0 mi Calm Calm - N/A   Overcast
2:55 AM 60.8 °F 59.2 °F 94% 30.25 in 10.0 mi WSW 3.5 mph - N/A   Scattered Clouds
3:15 AM 60.6 °F 59.0 °F 94% 30.25 in 10.0 mi WSW 3.5 mph - N/A   Clear
3:35 AM 61.9 °F 56.7 °F 83% 30.25 in 10.0 mi SW 3.5 mph - N/A   Clear
3:55 AM 61.0 °F 57.2 °F 87% 30.26 in 10.0 mi SW 3.5 mph - N/A   Clear
4:15 AM 61.0 °F 57.2 °F 87% 30.26 in 10.0 mi SW 4.6 mph - N/A   Clear
4:35 AM 60.6 °F 57.2 °F 88% 30.26 in 10.0 mi WSW 3.5 mph - N/A   Clear
4:55 AM 59.9 °F 57.4 °F 91% 30.26 in 10.0 mi SW 3.5 mph - N/A   Clear
5:15 AM 60.4 °F 56.7 °F 87% 30.27 in 10.0 mi Calm Calm - N/A   Clear
5:35 AM 59.2 °F 57.2 °F 93% 30.28 in 10.0 mi SW 4.6 mph - N/A   Clear
5:55 AM 60.3 °F 56.8 °F 88% 30.28 in 10.0 mi South 3.5 mph - N/A   Scattered Clouds
6:15 AM 60.1 °F 57.2 °F 90% 30.28 in 10.0 mi South 3.5 mph - N/A   Scattered Clouds
6:35 AM 60.1 °F 57.2 °F 90% 30.29 in 10.0 mi SSW 4.6 mph - N/A   Clear
6:55 AM 59.9 °F 57.4 °F 91% 30.29 in 10.0 mi SSW 4.6 mph - N/A   Clear
7:15 AM 59.7 °F 57.6 °F 93% 30.30 in 10.0 mi SW 3.5 mph - N/A   Scattered Clouds
7:35 AM 59.0 °F 57.4 °F 94% 30.30 in 10.0 mi SSW 3.5 mph - N/A   Scattered Clouds
7:55 AM 59.0 °F 57.2 °F 94% 30.31 in 10.0 mi SSW 3.5 mph - N/A   Scattered Clouds
8:15 AM 59.0 °F 56.8 °F 93% 30.31 in 10.0 mi SW 3.5 mph - N/A   Clear
8:35 AM 59.5 °F 57.0 °F 91% 30.31 in 10.0 mi SW 3.5 mph - N/A   Clear
8:55 AM 59.9 °F 57.2 °F 91% 30.33 in 10.0 mi SW 4.6 mph - N/A   Clear
9:15 AM 61.2 °F 57.4 °F 87% 30.33 in 10.0 mi SW 4.6 mph - N/A   Clear
9:35 AM 62.4 °F 58.1 °F 86% 30.33 in 10.0 mi SW 3.5 mph - N/A   Clear
9:55 AM 63.7 °F 58.3 °F 83% 30.33 in 10.0 mi WSW 4.6 mph - N/A   Clear
10:15 AM 64.6 °F 58.5 °F 80% 30.34 in 10.0 mi WSW 3.5 mph - N/A   Scattered Clouds
10:35 AM 66.2 °F 58.5 °F 76% 30.34 in 10.0 mi WSW 6.9 mph - N/A   Scattered Clouds
10:55 AM 66.7 °F 57.9 °F 73% 30.34 in 10.0 mi West 5.8 mph - N/A   Scattered Clouds
11:15 AM 68.2 °F 58.1 °F 70% 30.34 in 10.0 mi West 5.8 mph - N/A   Clear
11:35 AM 69.3 °F 58.1 °F 68% 30.33 in 10.0 mi West 8.1 mph - N/A   Clear
11:55 AM 70.0 °F 57.7 °F 65% 30.33 in 10.0 mi WSW 4.6 mph - N/A   Scattered Clouds
12:15 PM 70.5 °F 56.5 °F 61% 30.32 in 10.0 mi WSW 9.2 mph - N/A   Scattered Clouds
12:35 PM 68.9 °F 55.2 °F 62% 30.32 in 10.0 mi WNW 6.9 mph - N/A   Mostly Cloudy
12:55 PM 68.9 °F 54.7 °F 60% 30.32 in 10.0 mi West 3.5 mph - N/A   Scattered Clouds
1:15 PM 69.8 °F 53.4 °F 56% 30.32 in 10.0 mi West 5.8 mph - N/A   Scattered Clouds
1:35 PM 72.9 °F 54.1 °F 52% 30.31 in 10.0 mi WSW 4.6 mph - N/A   Scattered Clouds
1:55 PM 71.6 °F 53.6 °F 53% 30.30 in 10.0 mi West 5.8 mph - N/A   Mostly Cloudy
2:15 PM 72.7 °F 54.5 °F 53% 30.30 in 10.0 mi West 5.8 mph - N/A   Mostly Cloudy
2:35 PM 72.0 °F 54.0 °F 53% 30.29 in 10.0 mi WNW 5.8 mph - N/A   Scattered Clouds
2:55 PM 73.9 °F 54.5 °F 51% 30.28 in 10.0 mi NW 4.6 mph - N/A   Scattered Clouds
3:15 PM 74.8 °F 54.5 °F 49% 30.28 in 10.0 mi West 8.1 mph - N/A   Mostly Cloudy
3:35 PM 74.8 °F 54.1 °F 48% 30.28 in 10.0 mi West 6.9 mph - N/A   Mostly Cloudy
3:55 PM 73.8 °F 54.0 °F 50% 30.28 in 10.0 mi WSW 5.8 mph - N/A   Mostly Cloudy
4:15 PM 73.2 °F 53.8 °F 50% 30.27 in 10.0 mi WNW 4.6 mph - N/A   Mostly Cloudy
4:35 PM 71.6 °F 53.2 °F 52% 30.27 in 10.0 mi Calm Calm - N/A   Scattered Clouds
5:15 PM 74.1 °F 53.8 °F 49% 30.26 in 10.0 mi WSW 3.5 mph - N/A   Scattered Clouds
5:35 PM 73.8 °F 53.6 °F 49% 30.26 in 10.0 mi SW 4.6 mph - N/A   Scattered Clouds
5:55 PM 73.4 °F 54.5 °F 51% 30.25 in 10.0 mi SW 3.5 mph - N/A   Scattered Clouds
6:15 PM 72.7 °F 54.3 °F 52% 30.25 in 10.0 mi Calm Calm - N/A   Clear
6:35 PM 72.0 °F 54.9 °F 55% 30.26 in 10.0 mi Calm Calm - N/A   Clear
6:55 PM 70.7 °F 54.5 °F 56% 30.26 in 10.0 mi Calm Calm - N/A   Clear
7:15 PM 69.8 °F 55.0 °F 59% 30.26 in 10.0 mi Calm Calm - N/A   Clear
7:35 PM 68.9 °F 54.9 °F 61% 30.26 in 10.0 mi Calm Calm - N/A   Clear
7:55 PM 69.6 °F 53.6 °F 57% 30.26 in 10.0 mi SW 3.5 mph - N/A   Clear
8:15 PM 66.6 °F 54.3 °F 65% 30.26 in 10.0 mi Calm Calm - N/A   Clear
8:35 PM 66.0 °F 54.7 °F 67% 30.26 in 10.0 mi Calm Calm - N/A   Clear
9:15 PM 64.8 °F 55.4 °F 72% 30.26 in 10.0 mi Calm Calm - N/A   Clear
9:35 PM 64.9 °F 55.2 °F 71% 30.26 in 10.0 mi Calm Calm - N/A   Clear
9:55 PM 63.5 °F 55.2 °F 74% 30.26 in 10.0 mi Calm Calm - N/A   Clear
10:15 PM 63.7 °F 55.4 °F 74% 30.26 in 10.0 mi Calm Calm - N/A   Clear
10:35 PM 63.1 °F 55.4 °F 76% 30.27 in 10.0 mi SSW 3.5 mph - N/A   Clear
10:55 PM 62.2 °F 55.6 °F 79% 30.27 in 10.0 mi SW 3.5 mph - N/A   Clear
11:15 PM 62.1 °F 55.8 °F 80% 30.27 in 10.0 mi SW 4.6 mph - N/A   Clear
11:35 PM 61.3 °F 55.8 °F 82% 30.27 in 10.0 mi SW 4.6 mph - N/A   Clear
11:55 PM 60.8 °F 55.9 °F 84% 30.27 in 10.0 mi SSW 4.6 mph - N/A   Clear